KOSEN 1
1 49402U 21102H   25347.09725082  .00011711  00000-0  48989-3 0  9991
2 49402  97.3476  27.9796 0015674 139.7713 220.4687 15.23622161225659
HO-113
1 50466U 21131B   25347.27499973  .00001287  00000-0  41331-3 0  9993
2 50466  98.5048  75.6932 0003163 304.9829  55.1062 14.41114831208330
SNUGLITE 2
1 52899U 22065F   25347.28069082  .00002348  00000-0  45864-3 0  9991
2 52899  98.1922 127.8102 0006501 243.5128 116.5408 14.63840080183791
UmKA 1 (RS40S)
1 57172U 23091G   25347.26949853  .00010798  00000-0  52982-3 0  9998
2 57172  97.5345  41.7314 0014698  51.6823 308.5730 15.18183621135775
CubeBel-2 (EU11S)
1 57175U 23091K   25347.31202422  .00023481  00000-0  96677-3 0  9993
2 57175  97.5344  44.2661 0012015  54.3449 305.8905 15.24055730135944
RS-38S
1 57189U 23091Z   25347.29487331  .00024938  00000-0  87481-3 0  9990
2 57189  97.5367  48.7043 0008725  21.3349 338.8253 15.29390468136211
SONATE-2
1 59112U 24043Q   25347.30061801  .00042666  00000-0  89837-3 0  9993
2 59112  97.5319 123.5721 0009037 159.4391 200.7222 15.45115317 99068
MO-122
1 60209U 24125G   25347.30619734  .00050144  00000-0  10104-2 0  9997
2 60209  97.2528 197.6782 0014190 175.6478 184.4898 15.46300021 80692
GRBBeta
1 60237U 24128C   25347.15010726  .00008008  00000-0  55989-3 0  9993
2 60237  61.9893 148.1202 0056306  96.6577 264.0928 15.04762251 78250
Curium One
1 60242U 24128H   25346.92825311  .00014627  00000-0  90154-3 0  9994
2 60242  61.9786 143.7696 0056011  93.5386 267.2116 15.08898163 78319
ROBUSTA-3A
1 60243U 24128J   25346.93166704  .00011022  00000-0  69595-3 0  9991
2 60243  61.9859 145.2908 0056146  91.0076 269.7451 15.08219542 78296
CatSat
1 60246U 24125J   25347.12949590  .00050700  00000-0  12174-2 0  9991
2 60246  97.2317 194.5096 0034040 142.8753 217.4858 15.40578414 78586
HYPERVIEW-1G (RS66S)
1 61772U 24199AP  25347.32461347  .00062311  00000-0  11885-2 0  9997
2 61772  97.3214 216.7664 0007973 234.1318 125.9193 15.47915886105708
AO-123
1 61781U 24199AY  25347.32582396  .00017221  00000-0  55839-3 0  9993
2 61781  97.3253 212.7692 0012825 253.2249 106.7586 15.31970231105436
ZIMSAT 2
1 61783U 24199BA  25347.30357765  .00313534  00000-0  21628-2 0  9997
2 61783  97.3083 220.2937 0003739 184.5870 175.5360 15.73669378109098
HADES-R (SO-124)
1 62690U 25009CK  25347.21619672  .00252155  00000-0  31227-2 0  9991
2 62690  97.3868  69.8539 0001041 257.6170 102.4970 15.59223072 50857
HYDRA-T
1 62692U 25009CM  25347.19410726  .00230947  00000-0  26748-2 0  9996
2 62692  97.3875  70.0360 0001304 272.7372  87.3737 15.61060531 50862
JINJUSat 1B
1 63210U 25052A   25346.65442573  .00023892  00000-0  91052-3 0  9996
2 63210  97.4201 238.8104 0005454  46.7140 313.4553 15.26690690 41578
NUSHSAT 1
1 63211U 25052B   25347.23929508  .00031466  00000-0  11582-2 0  9995
2 63211  97.4185 239.5134 0005518  49.6717 310.5004 15.27780991 41679
TEVEL2-4
1 63213U 25052D   25347.24036976  .00030013  00000-0  11279-2 0  9996
2 63213  97.4103 239.0653 0005104  62.7439 297.4320 15.27108188 41665
TEVEL2-5
1 63214U 25052E   25347.24585434  .00029703  00000-0  11189-2 0  9999
2 63214  97.4102 239.0585 0005007  63.5171 296.6581 15.27032417 41664
TEVEL2-6
1 63215U 25052F   25347.25317621  .00029724  00000-0  11213-2 0  9993
2 63215  97.4104 239.0541 0005119  62.9743 297.2018 15.26984118 41666
TEVEL2-1
1 63217U 25052H   25347.23041720  .00028367  00000-0  10810-2 0  9991
2 63217  97.4082 238.8422 0005372  71.5172 288.6650 15.26655504 41650
TEVEL2-3
1 63218U 25052J   25347.22961214  .00028123  00000-0  10711-2 0  9990
2 63218  97.4083 238.8472 0005476  70.3621 289.8208 15.26677606 41657
TEVEL2-2
1 63219U 25052K   25347.16564159  .00024794  00000-0  94580-3 0  9998
2 63219  97.4081 238.7782 0005427  71.4913 288.6915 15.26650400 41645
TEVEL2-9
1 63237U 25052AD  25347.19471200  .00024422  00000-0  97377-3 0  9990
2 63237  97.4137 238.5129 0009199  81.0492 279.1787 15.25151922 41612
TEVEL2-7
1 63238U 25052AE  25347.20866746  .00025519  00000-0  10217-2 0  9991
2 63238  97.4144 238.5009 0009406  81.0079 279.2223 15.25002114 41614
TEVEL2-8
1 63239U 25052AF  25347.27992969  .00026608  00000-0  10657-2 0  9994
2 63239  97.4140 238.5562 0009433  81.0556 279.1749 15.24981442 41627
HYDRA-W
1 63490U 25052BL  25347.22129209  .00113219  00000-0  26611-2 0  9999
2 63490  97.4061 241.0086 0011584  70.8978 289.3522 15.41502245 41791
HADES-ICM (SO-125)
1 63492U 25052BN  25347.21668512  .00101456  00000-0  25478-2 0  9995
2 63492  97.4085 240.7340 0011534  73.8432 286.4083 15.39538976 41776
Dragonfly
1 65729U 98067XH  25346.67493080  .00219639  00000-0  16127-2 0  9995
2 65729  51.6248 136.0967 0006787 276.9077  83.1148 15.71879709 13154
RSP-03
1 65732U 98067XL  25346.80283155  .00161855  00000-0  13718-2 0  9993
2 65732  51.6253 136.2083 0005762 249.7501 110.2876 15.68628297 13179
GHS-01
1 65733U 98067XM  25346.69021224  .00264493  00000-0  17047-2 0  9999
2 65733  51.6272 135.4559 0007161 280.4692  79.5500 15.74787819 13172
BOTAN
1 65942U 98067XP  25346.84619684  .00139962  00000-0  14970-2 0  9995
2 65942  51.6286 138.7562 0003106 238.0921 121.9771 15.62906067  9888
BEE-1000
1 66650U 25274A   25347.28908301  .00003257  00000-0  32925-3 0  9996
2 66650  97.7387 274.4666 0010364 249.2427 110.7682 14.91666733  2480
SPIRONE
1 66657U 25274H   25347.28064838  .00005426  00000-0  53389-3 0  9998
2 66657  97.7381 274.4770 0010618 273.9871  86.0134 14.92460436  2486
K-HERO
1 66660U 25274L   25347.27498353  .00004592  00000-0  44691-3 0  9993
2 66660  97.7389 274.4856 0012609 278.7788  81.2003 14.92964209  2484
SNUGLITE-III DURI
1 66661U 25274M   25347.27333150  .00004246  00000-0  41219-3 0  9996
2 66661  97.7385 274.4873 0013314 280.0036  79.9680 14.93102902  2486
SilverSat
1 66909U 98067XV  25346.91909407  .00094974  00000-0  15570-2 0  9992
2 66909  51.6297 141.4878 0004450 228.6613 131.3994 15.51661311  1647
CEVROSAT1
1 98526U 25248E   25313.13142326  .00000000  00000-0  19360-3 0    02
2 98526  45.4084 218.4764 0001315 254.8982 242.1062 15.17981583    02
